De Queen, AR

9:12 PM CST on December 04, 2016 (GMT -0600)
Helms Sevier County

Weather History for KDEQ - August, 2013

Change the Weather History Date:

Monday, August 5, 2013

  Actual Average Record
Temperature  
Mean Temperature 86 °F 82 °F  
Max Temperature 96 °F 94 °F 109 °F (1956)
Min Temperature 75 °F 69 °F 54 °F (1976)
Degree Days  
Heating Degree Days 0 0  
Month to date heating degree days 0 0  
Since 1 June heating degree days 0 0  
Since 1 July heating degree days 0 0  
Cooling Degree Days 21 17  
Month to date cooling degree days 97 81  
Year to date cooling degree days 1165 1173  
Since 1 June cooling degree days 933 956  
Growing Degree Days 36 (Base 50)    
Moisture  
Dew Point 74 °F    
Average Humidity 70    
Maximum Humidity 94    
Minimum Humidity 46    
Precipitation  
Precipitation 0.00 in 0.07 in 1.13 in (1994)
Month to date precipitation 0.00 0.34  
Year to date precipitation 19.93 29.76  
Snow  
Snow 0.00 in - - ()
Month to date snowfall 0.0  
Since 1 June snowfall 0.0  
Since 1 July snowfall 0.0  
Snow Depth 0.00 in    
Sea Level Pressure  
Sea Level Pressure 29.92 in    
Wind  
Wind Speed 5 mph (SE)    
Max Wind Speed 12 mph    
Max Gust Speed 15 mph    
Visibility 8 miles    
Events      
T = Trace of Precipitation, MM = Missing Value Source: NWS Daily Summary

Daily Weather History Graph

Daily Weather History Graph

Search for Another Location

Airport or City:

Trip Planner

Search our weather history database for the weather conditions in past years. The results will help you decide how hot, cold, wet, or windy it might be!

Date:

Astronomy

Aug. 05, 2013 Rise Set
Actual Time 6:32 AM CDT 8:14 PM CDT
Civil Twilight 6:04 AM CDT 8:41 PM CDT
Nautical Twilight 5:32 AM CDT 9:14 PM CDT
Astronomical Twilight 4:57 AM CDT 9:48 PM CDT
Moon 5:27 AM CDT 7:17 PM CDT
Length of Visible Light 14h 36m
Length of Day
13h 42m
Waning Crescent, 1% of the Moon is Illuminated
Aug 5
Waning Crescent
Aug 6
New
Aug 14
First Quarter
Aug 20
Full
Aug 28
Last Quarter

Hourly Weather History & Observations

Time (CDT) Temp. Heat Index Dew Point Humidity Pressure Visibility Wind Dir Wind Speed Gust Speed Precip Events Conditions
12:53 AM 78.1 °F - 75.0 °F 90% 29.98 in 7.0 mi ENE 4.6 mph - N/A   Clear
1:53 AM 78.1 °F - 73.9 °F 87% 29.98 in 7.0 mi ENE 4.6 mph - N/A   Clear
2:53 AM 77.0 °F - 73.9 °F 90% 29.97 in 8.0 mi East 4.6 mph - N/A   Clear
3:53 AM 75.9 °F - 73.9 °F 94% 29.97 in 6.0 mi ENE 3.5 mph - N/A   Clear
4:53 AM 75.9 °F - 73.9 °F 94% 29.96 in 6.0 mi ENE 3.5 mph - N/A   Clear
5:53 AM 75.9 °F - 73.9 °F 94% 29.96 in 6.0 mi Calm Calm - N/A   Partly Cloudy
6:53 AM 75.0 °F - 73.9 °F 96% 29.96 in 4.0 mi Calm Calm - N/A   Clear
7:53 AM 78.1 °F - 75.0 °F 90% 29.97 in 3.0 mi ENE 3.5 mph - N/A   Clear
8:53 AM 82.9 °F 90.2 °F 75.0 °F 77% 29.98 in 8.0 mi SW 4.6 mph - N/A   Clear
9:53 AM 84.0 °F 91.9 °F 75.0 °F 74% 29.98 in 9.0 mi WSW 4.6 mph - N/A   Clear
10:53 AM 87.1 °F 95.4 °F 73.9 °F 65% 29.97 in 10.0 mi Variable 6.9 mph - N/A   Clear
11:53 AM 90.0 °F 100.2 °F 75.0 °F 61% 29.96 in 10.0 mi WSW 8.1 mph - N/A   Clear
12:53 PM 91.9 °F 103.2 °F 75.0 °F 58% 29.94 in 10.0 mi WSW 6.9 mph - N/A   Clear
1:53 PM 93.9 °F 102.1 °F 72.0 °F 49% 29.92 in 10.0 mi West 8.1 mph - N/A   Clear
2:53 PM 95.0 °F 103.2 °F 72.0 °F 47% 29.91 in 10.0 mi WSW 10.4 mph - N/A   Clear
3:53 PM 95.0 °F 105.2 °F 73.9 °F 50% 29.88 in 10.0 mi SSW 6.9 mph - N/A   Clear
4:53 PM 96.1 °F 105.6 °F 73.0 °F 47% 29.86 in 10.0 mi South 4.6 mph - N/A   Clear
5:53 PM 96.1 °F 105.6 °F 73.0 °F 47% 29.85 in 10.0 mi SE 3.5 mph - N/A   Clear
6:53 PM 93.9 °F 104.0 °F 73.9 °F 52% 29.83 in 10.0 mi SE 4.6 mph - N/A   Clear
7:53 PM 89.1 °F 100.2 °F 75.9 °F 65% 29.83 in 10.0 mi ESE 4.6 mph - N/A   Clear
8:53 PM 86.0 °F 95.1 °F 75.0 °F 70% 29.85 in 10.0 mi ESE 4.6 mph - N/A   Clear
9:53 PM 86.0 °F 95.1 °F 75.0 °F 70% 29.87 in 10.0 mi SE 5.8 mph - N/A   Clear
10:53 PM 86.0 °F 93.8 °F 73.9 °F 67% 29.87 in 10.0 mi SE 5.8 mph - N/A   Clear
11:53 PM 84.9 °F 92.1 °F 73.9 °F 69% 29.86 in 10.0 mi SE 6.9 mph - N/A   Clear